Salem, IL

10:57 PM CDT on September 20, 2017 (GMT -0500)
Salem-Leckrone

Weather History for KSLO - May, 2014

Change the Weather History Date:

Tuesday, May 13, 2014

  Actual Average Record
Temperature  
Mean Temperature 64 °F -  
Max Temperature 74 °F 75 °F 89 °F (1962)
Min Temperature 54 °F 52 °F 33 °F (1960)
Degree Days  
Heating Degree Days 1    
Growing Degree Days 14 (Base 50)    
Moisture  
Dew Point 62 °F    
Average Humidity 93    
Maximum Humidity 97    
Minimum Humidity 85    
Precipitation  
Precipitation 0.22 in - - ()
Sea Level Pressure  
Sea Level Pressure 30.05 in    
Wind  
Wind Speed 8 mph (WNW)    
Max Wind Speed 14 mph    
Max Gust Speed 18 mph    
Visibility 9 miles    
Events Rain , Thunderstorm    
Averages and records for this station are not official NWS values.
T = Trace of Precipitation, MM = Missing Value Source: NWS Daily Summary

Daily Weather History Graph

Daily Weather History Graph

Search for Another Location

Airport or City:

Trip Planner

Search our weather history database for the weather conditions in past years. The results will help you decide how hot, cold, wet, or windy it might be!

Date:

Astronomy

May. 13, 2014 Rise Set
Actual Time 5:45 AM CDT 7:59 PM CDT
Civil Twilight 5:16 AM CDT 8:28 PM CDT
Nautical Twilight 4:39 AM CDT 9:05 PM CDT
Astronomical Twilight 3:59 AM CDT 9:45 PM CDT
Moon 7:01 PM CDT (5/13) 5:01 AM CDT (5/13)
Length of Visible Light 15h 12m
Length of Day
14h 13m
Waxing Gibbous, 99% of the Moon is Illuminated
May 13
Waxing Gibbous
May 14
Full
May 21
Last Quarter
May 28
New
Jun 5
First Quarter

Hourly Weather History & Observations

Time (CDT) Temp. Dew Point Humidity Pressure Visibility Wind Dir Wind Speed Gust Speed Precip Events Conditions
12:15 AM 74.3 °F 69.4 °F 85% 29.93 in 10.0 mi SSE 4.6 mph - N/A Rain Light Rain
12:35 AM 74.3 °F 69.8 °F 86% 29.93 in 10.0 mi South 9.2 mph - N/A   Overcast
12:55 AM 74.3 °F 70.2 °F 87% 29.92 in 10.0 mi SSE 10.4 mph 16.1 mph N/A Thunderstorm Thunderstorm
1:15 AM 74.1 °F 70.0 °F 87% 29.93 in 10.0 mi South 10.4 mph 17.3 mph N/A Rain Light Rain
1:35 AM 73.8 °F 70.0 °F 88% 29.94 in 10.0 mi SSW 12.7 mph - N/A   Overcast
1:55 AM 73.8 °F 69.8 °F 87% 29.93 in 10.0 mi South 12.7 mph 18.4 mph N/A   Mostly Cloudy
2:15 AM 73.4 °F 69.4 °F 87% 29.94 in 10.0 mi SSW 10.4 mph - N/A   Scattered Clouds
2:35 AM 72.3 °F 69.8 °F 92% 29.94 in 10.0 mi WSW 8.1 mph - N/A Rain Light Rain
2:55 AM 71.6 °F 68.9 °F 91% 29.95 in 10.0 mi SW 10.4 mph - N/A Rain Light Rain
3:15 AM 70.3 °F 68.7 °F 95% 29.95 in 5.0 mi WSW 9.2 mph - 0.06 in Rain , Thunderstorm Heavy Thunderstorms and Rain
3:35 AM 69.8 °F 68.2 °F 95% 29.96 in 5.0 mi WSW 6.9 mph - 0.11 in Rain , Thunderstorm Heavy Thunderstorms and Rain
3:55 AM 68.9 °F 67.3 °F 95% 29.96 in 5.0 mi WSW 4.6 mph - 0.18 in Rain , Thunderstorm Heavy Thunderstorms and Rain
4:15 AM 68.7 °F 67.3 °F 95% 29.94 in 7.0 mi SW 3.5 mph - 0.01 in Rain Rain
4:35 AM 68.4 °F 67.5 °F 97% 29.93 in 7.0 mi Calm Calm - 0.01 in Rain Rain
4:55 AM 68.0 °F 67.1 °F 97% 29.93 in 7.0 mi SE 3.5 mph - 0.01 in Rain Light Rain
5:15 AM 67.6 °F 66.6 °F 96% 29.95 in 7.0 mi South 5.8 mph - 0.01 in Rain Rain
5:35 AM 67.3 °F 66.4 °F 97% 29.95 in 7.0 mi SSE 4.6 mph - 0.02 in Rain Rain
5:55 AM 67.3 °F 66.2 °F 96% 29.95 in 10.0 mi SSE 4.6 mph - 0.02 in Rain Light Rain
6:15 AM 67.1 °F 66.2 °F 97% 29.94 in 7.0 mi SSE 4.6 mph - N/A Rain Light Rain
6:35 AM 67.1 °F 66.2 °F 97% 29.96 in 10.0 mi Calm Calm - N/A Rain Light Rain
6:55 AM 67.5 °F 66.6 °F 97% 29.97 in 10.0 mi West 5.8 mph - N/A   Mostly Cloudy
7:55 AM 68.0 °F 66.2 °F 94% 29.99 in 10.0 mi WSW 6.9 mph - N/A   Overcast
8:15 AM 68.7 °F 66.9 °F 94% 30.01 in 10.0 mi SW 8.1 mph - N/A   Overcast
8:35 AM 68.9 °F 67.1 °F 94% 30.01 in 10.0 mi WSW 4.6 mph - N/A   Overcast
8:55 AM 69.3 °F 67.1 °F 93% 30.01 in 10.0 mi WSW 8.1 mph - N/A   Light Drizzle
9:15 AM 69.1 °F 67.1 °F 93% 30.02 in 10.0 mi SW 6.9 mph - N/A Rain Light Rain
10:55 AM 67.6 °F 65.8 °F 94% 30.05 in 5.0 mi West 10.4 mph - N/A Rain Light Rain
11:35 AM 67.1 °F 64.8 °F 92% 30.04 in 10.0 mi West 6.9 mph - N/A   Light Drizzle
12:15 PM 65.7 °F 63.5 °F 93% 30.06 in 10.0 mi WNW 10.4 mph - N/A   Overcast
12:35 PM 66.0 °F 63.3 °F 91% 30.07 in 10.0 mi WNW 6.9 mph - N/A Rain Light Rain
12:55 PM 65.8 °F 63.0 °F 90% 30.07 in 10.0 mi West 9.2 mph - N/A   Overcast
1:15 PM 64.8 °F 62.4 °F 92% 30.08 in 10.0 mi NW 5.8 mph - N/A   Overcast
1:35 PM 64.6 °F 62.4 °F 93% 30.08 in 10.0 mi NW 5.8 mph - N/A Rain Light Rain
1:55 PM 64.0 °F 62.2 °F 94% 30.08 in 5.0 mi WNW 4.6 mph - N/A Rain Light Rain
2:15 PM 64.4 °F 62.6 °F 94% 30.07 in 10.0 mi NW 6.9 mph - N/A   Overcast
2:35 PM 64.0 °F 62.4 °F 94% 30.08 in 3.0 mi NW 8.1 mph - N/A Rain Light Rain
2:55 PM 63.5 °F 61.3 °F 93% 30.08 in 10.0 mi NW 5.8 mph - N/A Rain Light Rain
3:15 PM 62.8 °F 61.5 °F 96% 30.09 in 2.0 mi WNW 8.1 mph - N/A Rain Rain
3:35 PM 62.2 °F 61.0 °F 96% 30.10 in 3.0 mi WNW 10.4 mph 17.3 mph 0.01 in Rain Heavy Rain
3:55 PM 61.2 °F 59.7 °F 95% 30.10 in 5.0 mi NW 10.4 mph - 0.01 in Rain Rain
4:15 PM 60.8 °F 59.4 °F 95% 30.10 in 3.0 mi NW 6.9 mph - N/A Rain Rain
4:35 PM 60.4 °F 59.0 °F 95% 30.10 in 5.0 mi NNW 12.7 mph 18.4 mph N/A Rain Rain
4:55 PM 60.3 °F 57.9 °F 92% 30.11 in 10.0 mi NW 11.5 mph 18.4 mph N/A   Overcast
5:15 PM 59.9 °F 57.6 °F 92% 30.11 in 10.0 mi NNW 9.2 mph 16.1 mph N/A   Overcast
5:35 PM 60.3 °F 57.4 °F 90% 30.11 in 10.0 mi NNW 6.9 mph - N/A   Mostly Cloudy
5:55 PM 60.3 °F 57.6 °F 91% 30.11 in 10.0 mi NNW 9.2 mph - N/A   Overcast
6:15 PM 60.1 °F 57.6 °F 91% 30.11 in 10.0 mi NW 8.1 mph - N/A   Overcast
6:35 PM 59.0 °F 56.5 °F 91% 30.11 in 10.0 mi NW 8.1 mph - N/A   Overcast
6:55 PM 58.3 °F 56.3 °F 93% 30.12 in 10.0 mi NNW 10.4 mph - N/A Rain Light Rain
7:15 PM 57.7 °F 55.4 °F 92% 30.13 in 10.0 mi NNW 9.2 mph - N/A   Light Drizzle
7:35 PM 57.7 °F 55.4 °F 92% 30.13 in 10.0 mi NNW 9.2 mph - N/A   Light Drizzle
7:55 PM 57.4 °F 54.5 °F 90% 30.14 in 10.0 mi NNW 10.4 mph - N/A   Overcast
8:15 PM 57.2 °F 54.7 °F 91% 30.14 in 10.0 mi NNW 13.8 mph - N/A Rain Light Rain
8:35 PM 56.7 °F 54.0 °F 91% 30.15 in 10.0 mi NNW 9.2 mph - N/A Rain Light Rain
8:55 PM 56.3 °F 53.6 °F 91% 30.16 in 10.0 mi NNW 8.1 mph - N/A Rain Rain
9:15 PM 56.3 °F 53.8 °F 91% 30.17 in 10.0 mi NNW 6.9 mph - N/A   Drizzle
9:35 PM 56.3 °F 53.8 °F 91% 30.18 in 10.0 mi NNW 6.9 mph - N/A Rain Light Rain
9:55 PM 55.8 °F 54.0 °F 94% 30.18 in 7.0 mi NNW 6.9 mph - N/A Rain Rain
10:15 PM 55.6 °F 54.1 °F 95% 30.18 in 10.0 mi NNW 8.1 mph - N/A Rain Light Rain
10:35 PM 55.0 °F 53.4 °F 94% 30.19 in 7.0 mi North 9.2 mph - N/A Rain Rain
10:55 PM 55.0 °F 53.8 °F 96% 30.19 in 10.0 mi NNW 9.2 mph - N/A   Drizzle
11:15 PM 54.9 °F 53.4 °F 95% 30.19 in 10.0 mi North 8.1 mph - N/A   Drizzle
11:35 PM 54.7 °F 53.1 °F 94% 30.19 in 10.0 mi North 6.9 mph - N/A Rain Rain
11:55 PM 54.5 °F 52.9 °F 94% 30.20 in 10.0 mi North 9.2 mph - N/A Rain Rain